Regional Weather Roundup
Issued by NWS

Home | Current Version | Previous Version | Text Only | Print | Product List | Glossary On
Versions: 1 2 3 4 5 6 7 8 9 10 11 12 13 14 15 16 17 18 19 20 21 22 23 24 25 26 27 28 29 30 31 32 33 34 35 36 37 38 39 40 41 42 43 44 45 46 47 48 49 50
000
ASUS44 KJAN 310410
RWRMS

MISSISSIPPI HOURLY WEATHER ROUNDUP
NATIONAL WEATHER SERVICE JACKSON MS
1100 PM CDT THU OCT 30 2014

NOTE: "FAIR: INDICATES FEW OR NO CLOUDS BELOW 12,000 FEET WITH NO
SIGNIFICANT WEATHER AND/OR OBSTRUCTIONS TO VISIBILITY.

MSZ001>002-007>008-010>013-018>021-025>028-034>036-310500-
NORTHWEST MISSISSIPPI

CITY           SKY/WX    TMP DP  RH WIND       PRES   REMARKS
CLARKSDALE     FAIR      59  54  82 SW6       30.04F
CLEVELAND      FAIR      57  53  84 SW3       30.04F
GREENWOOD      CLEAR     52  50  93 CALM      30.05S
GREENVILLE     CLEAR     57  50  77 W5        30.05S
GRENADA        FAIR      50  46  87 CALM        N/A
OLIVE BRANCH   MOCLDY    54  46  76 S6        30.02S
OXFORD         MOCLDY    50  48  93 CALM      30.05S
TUNICA         CLEAR     55  46  71 S3        30.03S
$$

MSZ003>006-009-014>017-022>024-029>033-037>039-310500-
NORTHEAST MISSISSIPPI

CITY           SKY/WX    TMP DP  RH WIND       PRES   REMARKS
COLUMBUS AFB   CLOUDY    47  46  95 CALM      30.04S
CORINTH        MOCLDY    48  46  93 CALM      30.03S
GOLDN TRIANGLE MOCLDY    46  41  81 CALM      30.03F
STARKVILLE     MOCLDY    45  45 100 CALM      30.05S
TUPELO         CLOUDY    53  48  83 W3        30.03F
$$

MSZ040-058-310500-
CENTRAL MISSISSIPPI

CITY           SKY/WX    TMP DP  RH WIND       PRES   REMARKS
JACKSON INTL   MOCLDY    50  45  83 CALM      30.06S
JACKSON HAWKNS PTCLDY    52  45  77 CALM      30.07R
MERIDIAN KEY   CLEAR     45  42  89 CALM      30.05F
MERIDIAN NAS   CLEAR     47  43  86 CALM      30.04F
RAYMOND        FAIR      48  45  87 CALM      30.07R
VICKSBURG      CLEAR     47  46  97 CALM      30.08R
$$

MSZ059>079-310500-
SOUTH MISSISSIPPI

CITY           SKY/WX    TMP DP  RH WIND       PRES   REMARKS
BROOKHAVEN     FAIR      46  45  93 CALM      30.08S
HATTIESBURG    CLEAR     48  45  89 CALM      30.06S
MCCOMB         CLEAR     49  43  80 NW5       30.07R
NATCHEZ        CLEAR     50  46  87 CALM      30.08S
PINE BELT      CLEAR     46  41  81 CALM      30.06S
$$

MSZ080>082-310500-
COASTAL MISSISSIPPI

CITY           SKY/WX    TMP DP  RH WIND       PRES   REMARKS
BILOXI         CLEAR     59  44  56 CALM      30.04S
PASCAGOULA     CLEAR     43  41  93 CALM      30.04S
GULFPORT       CLEAR     52  46  80 CALM      30.04S
$$



USA.gov is the U.S. government's official web portal to all federal, state and local government web resources and services.